パンスターズ彗星

C/2015 D3 ( PanSTARRS )

English version
Home page
Updated on April 17, 2020

---------------------------------------------------------------------

・ プロフィール

発見日 2015年2月19日
発見光度 20.4等
発見者 Pan-STARRS 1 telescope (Haleakala)

・ 写真集

・ 軌道要素

Epoch 2016 May 12.0 TT = JDT 2457520.5
T 2016 Apr. 30.78767 TT                                 Rudenko
q   8.1487307            (2000.0)            P               Q
z  -0.0003025      Peri.    2.84980     -0.90712791     +0.28893908
 +/-0.0000010      Node   156.98045     +0.36899823     +0.19640826
e   1.0024648      Incl.  128.50935     +0.20238394     +0.93698346
From 307 observations 2013 Apr. 8-2020 Feb. 21, mean residual 0".6.

・ 光度変化

        m1 = 5.0 + 5 logΔ + 10.0 log r

---------------------------------------------------------------------

軌道要素はM.P.E.C. 2020-G65に掲載されたものです。
光度グラフはComet for Windowsで作成したものです。

---------------------------------------------------------------------

Copyright(C) Seiichi Yoshida (comet@aerith.net). All rights reserved.